Wetterdaten: aktuell Mittwoch, 23.10.2019 12:15
Datum Zeit Temp 2m Temp 2m ob Temp 10cm Feuchte 2 m Regen Wind mittel Richtung Richtung Taupunkt Windben
23.10.2019 12:15 13,7 C 13,3 C 13,4 C 91 % 0,0 l/m 3,4 km/h W-SW 247 12,3 C 9,3 km/h
23.10.2019 12:10 13,5 C 13,3 C 13,4 C 92 % 0,0 l/m 3,7 km/h SO 135 12,2 C 3,9 km/h
23.10.2019 12:05 13,5 C 13,3 C 13,4 C 92 % 0,0 l/m 3,7 km/h SO 135 12,2 C 3,9 km/h
23.10.2019 12:00 13,5 C 13,3 C 13,4 C 93 % 0,0 l/m 3,9 km/h W-SW 247 12,4 C 6,1 km/h
23.10.2019 11:55 13,4 C 13,2 C 13,3 C 93 % 0,0 l/m 5,1 km/h S-SO 157 12,3 C 6,8 km/h
23.10.2019 11:50 13,3 C 13,0 C 13,2 C 93 % 0,0 l/m 6,4 km/h SW 225 12,2 C 4,5 km/h
23.10.2019 11:45 13,1 C 12,9 C 13,1 C 93 % 0,0 l/m 5,6 km/h W-SW 247 12,0 C 8,0 km/h
23.10.2019 11:40 13,1 C 12,8 C 12,9 C 93 % 0,0 l/m 5,0 km/h W 270 12,0 C 16,7 km/h
23.10.2019 11:35 12,9 C 12,6 C 12,7 C 93 % 0,0 l/m 4,7 km/h SW 225 11,8 C 8,2 km/h
23.10.2019 11:30 12,8 C 12,4 C 12,7 C 93 % 0,0 l/m 4,5 km/h W-SW 247 11,7 C 4,5 km/h
23.10.2019 11:25 12,7 C 12,2 C 12,5 C 93 % 0,0 l/m 4,2 km/h SW 225 11,6 C 12,1 km/h
23.10.2019 11:20 12,7 C 12,1 C 12,3 C 93 % 0,0 l/m 3,5 km/h W-SW 247 11,6 C 3,9 km/h
23.10.2019 11:15 12,5 C 11,9 C 12,3 C 93 % 0,0 l/m 3,2 km/h W-SW 247 11,4 C 3,7 km/h
23.10.2019 11:10 12,5 C 11,7 C 12,2 C 93 % 0,0 l/m 3,5 km/h S-SO 157 11,4 C 7,9 km/h
23.10.2019 11:05 12,3 C 11,6 C 12,1 C 93 % 0,0 l/m 3,2 km/h S-SO 157 11,2 C 4,3 km/h
23.10.2019 11:00 12,3 C 11,6 C 12,0 C 93 % 0,0 l/m 2,6 km/h W-NW 292 11,2 C 2,1 km/h
23.10.2019 10:55 12,2 C 11,5 C 11,9 C 93 % 0,0 l/m 3,5 km/h SO 135 11,1 C 6,4 km/h
23.10.2019 10:50 12,2 C 11,5 C 11,9 C 93 % 0,0 l/m 3,9 km/h W 270 11,1 C 3,1 km/h
23.10.2019 10:45 12,1 C 11,5 C 11,8 C 93 % 0,0 l/m 3,2 km/h S 180 11,0 C 3,9 km/h
23.10.2019 10:40 12,1 C 11,5 C 11,8 C 93 % 0,0 l/m 3,7 km/h SW 225 11,0 C 6,3 km/h
23.10.2019 10:35 12,1 C 11,3 C 11,7 C 93 % 0,0 l/m 3,9 km/h S-SO 157 11,0 C 1,9 km/h
23.10.2019 10:30 12,1 C 11,4 C 11,7 C 93 % 0,0 l/m 3,7 km/h W-NW 292 11,0 C 10,9 km/h
23.10.2019 10:25 12,1 C 11,3 C 11,7 C 93 % 0,0 l/m 2,7 km/h S-SO 157 11,0 C 3,1 km/h
23.10.2019 10:20 12,0 C 11,3 C 11,7 C 92 % 0,0 l/m 3,1 km/h NW 315 10,7 C 3,4 km/h
23.10.2019 10:15 11,9 C 11,1 C 11,5 C 93 % 0,0 l/m 3,5 km/h W 270 10,8 C 5,3 km/h
23.10.2019 10:10 11,9 C 11,1 C 11,5 C 93 % 0,0 l/m 3,2 km/h S-SO 157 10,8 C 4,8 km/h
_ Min-Zeit 07:30 07:40 07:40 13:05 - 17:30 - - 07:30 13:40
Minimum _ 5,9 C 4,1 C 5,0 C 78 % - 0,0 km/h - - 4,5 C 0,0 km/h
_ Max-Zeit 16:00 13:55 15:40 08:40 13:00 11:50 - - 12:00 11:40
Maximum _ 15,5 C 19,9 C 17,3 C 93 % 0,0 l/m 6,4 km/h
SW
- - 12,4 C 16,7 km/h
W
Durchschnitt _ 10,8 C 10,4 C 10,7 C 86 % #0,0 l/m 1,2 km/h W - 8,6 C 1,7 km/h